Regional Weather Roundup
Issued by NWS

Home | Current Version | Previous Version | Text Only | Print | Product List | Glossary Off
Versions: 1 2 3 4 5 6 7 8 9 10 11 12 13 14 15 16 17 18 19 20 21 22 23 24 25 26 27 28 29 30 31 32 33 34 35 36 37 38 39 40 41 42 43 44 45 46 47 48 49 50

000
ASUS45 KABQ 151301
RWRNM
NEW MEXICO REGIONAL WEATHER ROUNDUP
NATIONAL WEATHER SERVICE ALBUQUERQUE NM
600 AM MST FRI DEC 15 2017

NOTE: "FAIR" MEANS FEW OR NO CLOUDS BELOW 12,000 FEET AGL WITH NO
       SIGNIFICANT WEATHER OR OBSTRUCTIONS TO VISION.

      THIS PRODUCT IS RELEASED AS TWO VERSIONS.  ONE VERSION NEAR
      THE TOP OF THE HOUR CONTAINING PRELIMINARY DATA FROM ALBUQUERQUE
      AND OTHER STATIONS.  A FINAL VERSION WITH ADDITIONAL DATA IS
      ISSUED ABOUT 10 MINUTES AFTER THE HOUR.

NMZ501-503-504-510>518-151400-
NORTHWEST PLATEAU/NORTHCENTRAL MOUNTAINS

CITY           SKY/WX    TMP DP  RH WIND       PRES   REMARKS
FARMINGTON     FAIR      16  13  88 E7        30.32F WCI   6
LOS ALAMOS     FAIR      24  16  70 CALM      30.31R
SANTA FE       FAIR      16  13  88 N10       30.30S WCI   4
TAOS           FAIR       9   5  84 E6        30.35S WCI  -1
ANGEL FIRE     FAIR       5   2  88 CALM      30.30S

$$
NMZ402-403-502-505>509-151400-
WESTCENTRAL MOUNTAINS/SOUTHWEST MOUNTAINS

CITY           SKY/WX    TMP DP  RH WIND       PRES   REMARKS
GALLUP         FAIR       5   1  83 CALM      30.34R
GRANTS         FAIR       7   4  85 W9        30.36R WCI  -6
SILVER CITY    FAIR      19  10  68 N7        30.29R WCI   9

$$
NMZ407-409-411-412-151400-
SOUTHERN DESERTS

CITY           SKY/WX    TMP DP  RH WIND       PRES   REMARKS
DEMING         FAIR      29  13  51 E8        30.31R WCI  21
LAS CRUCES     FAIR      28  16  60 NW3       30.33R
HOLLOMAN AFB   FAIR      26  14  61 SE8       30.34R WCI  17
ALAMOGORDO     FAIR      30  16  55 S7        30.33R WCI  23
T OR C         FAIR      31  15  52 CALM      30.31R

$$
NMZ519>523-151400-
CENTRAL VALLEYS/CENTRAL HIGHLANDS

CITY           SKY/WX    TMP DP  RH WIND       PRES   REMARKS
ALBUQUERQUE    FAIR      25  16  68 N3        30.34R
DOUBLE EAGLE   CLEAR     16  10  79 NW8       30.33  WCI   5
MORIARTY ARPT  FAIR       6   3  86 N3        30.31S
CLINES CORNERS NOT AVBL
BELEN          FAIR      17  10  74 W7        30.34S WCI   8
SOCORRO        FAIR      23  12  61 N6        30.33S WCI  16

$$
NMZ524>526-539-540-151400-
SOUTHCENTRAL MOUNTAINS

CITY           SKY/WX    TMP DP  RH WIND       PRES   REMARKS
RUIDOSO        FAIR      23  14  68 W3        30.30S

$$
NMZ527>531-151400-
NORTHEAST HIGHLANDS/NORTHEAST PLAINS

CITY           SKY/WX    TMP DP  RH WIND       PRES   REMARKS
LAS VEGAS      FAIR      15  13  91 S6        30.23F WCI   6
RATON          FAIR      10   5  80 NE6       30.21S WCI   0
CLAYTON        FAIR      24  20  84 W16       30.18F WCI  11

$$
NMZ532>537-151400-
EASTCENTRAL PLAINS

CITY           SKY/WX    TMP DP  RH WIND       PRES   REMARKS
SANTA ROSA     FAIR      19  16  86 SW3       30.29F
TUCUMCARI      FAIR      22  19  89 SW5       30.26F WCI  16
CANNON AFB     CLEAR     24  24 100 NW7       30.30S WCI  15
CLOVIS AIRPORT FAIR      21  19  92 NW8       30.30S WCI  11

$$
NMZ028-029-538-151400-
SOUTHEAST PLAINS

CITY           SKY/WX    TMP DP  RH WIND       PRES   REMARKS
ROSWELL        FAIR      26  19  74 CALM      30.35R
ARTESIA        FAIR      25  18  74 W5        30.37R WCI  19
CARLSBAD       FAIR      24  22  91 W5        30.35R WCI  18
HOBBS          CLEAR     23  21  93 NW7       30.34R WCI  15


$$




USA.gov is the U.S. government's official web portal to all federal, state and local government web resources and services.